Location: Newark
(49.7485°N, 18.8323°E)
Time: 18:01:26
(UTC+00:00)

N. Korean satellite - Visible Passes

Search period start: 22 November 2019 00:00
Search period end: 02 December 2019 00:00
Orbit: 456 x 506 km, 97.2° (Epoch: 21 November)

Date Brightness Start Highest point End Pass type
(mag) Time Alt. Az. Time Alt. Az. Time Alt. Az.
22 Nov 6.6 04:51:11 10° NNE 04:54:54 85° WNW 04:58:34 10° SSW visible
22 Nov 6.6 15:30:26 10° SSE 15:34:04 69° ENE 15:37:47 10° N visible
22 Nov 10.2 17:06:44 10° WSW 17:07:56 11° W 17:09:08 10° WNW visible
23 Nov 7.7 04:25:52 10° NNE 04:29:29 48° E 04:33:00 10° S visible
23 Nov 9.5 16:39:28 10° SW 16:42:17 21° W 16:45:08 10° NW visible
24 Nov 9.0 04:00:50 10° NE 04:03:56 25° E 04:07:00 10° SSE visible
24 Nov 8.3 16:13:16 10° SSW 16:16:43 38° W 16:20:14 10° NNW visible
25 Nov 10.0 03:36:20 10° NE 03:38:19 14° E 03:40:17 10° ESE visible
25 Nov 6.7 05:08:26 10° N 05:12:03 53° WNW 05:15:36 10° SSW visible
25 Nov 6.9 15:47:33 10° S 15:51:15 75° W 15:54:59 10° NNW visible
26 Nov 6.7 04:42:58 10° NNE 04:46:41 78° ESE 04:50:18 10° S visible
26 Nov 6.7 15:22:16 10° SSE 15:25:53 56° ENE 15:29:32 10° N visible
26 Nov 10.0 16:57:39 10° WSW 16:59:37 14° W 17:01:36 10° WNW visible
27 Nov 8.1 04:17:44 10° NNE 04:21:12 38° E 04:24:36 10° SSE visible
27 Nov 9.2 16:30:54 10° SSW 16:33:58 25° W 16:37:07 10° NW visible
28 Nov 9.3 03:52:49 10° NE 03:55:38 21° E 03:58:25 10° SE visible
28 Nov 7.2 05:25:47 10° N 05:29:08 34° WNW 05:32:25 10° SW visible
28 Nov 7.8 16:04:52 10° S 16:08:27 46° W 16:12:04 10° NNW visible
29 Nov 10.1 03:28:46 10° ENE 03:29:58 11° E 03:31:09 10° ESE visible
29 Nov 6.5 05:00:10 10° N 05:03:49 66° WNW 05:07:22 10° SSW visible
29 Nov 6.6 15:39:17 10° SSE 15:43:00 88° ENE 15:46:45 10° NNW visible
30 Nov 7.1 04:34:45 10° NNE 04:38:24 62° E 04:41:57 10° S visible
30 Nov 9.8 16:48:49 10° SW 16:51:16 17° W 16:53:44 10° NW visible
01 Dec 8.5 04:09:35 10° NNE 04:12:52 31° E 04:16:06 10° SSE visible
01 Dec 8.8 16:22:21 10° SSW 16:25:39 30° W 16:28:59 10° NNW visible
